This is the latest recevied weather packets stored in our database for station/object EA3KZ-1. If no packets are shown the sender has not sent any weather packets the latest 10 day(s).
| Time | Temp. | Humidity | Pressure | Rain* | Wind** | Luminosity | Snow |
|---|---|---|---|---|---|---|---|
| 1777840862 | 14.44° C | 87% | 1010.5 hPa | 0 mm | - | - | - |
| 1777840259 | 14.44° C | 88% | 1010.6 hPa | 0 mm | - | - | - |
| 1777839657 | 14.44° C | 89% | 1010.6 hPa | 0 mm | - | - | - |
| 1777839054 | 14.44° C | 89% | 1010.6 hPa | 0 mm | - | - | - |
| 1777838452 | 14.44° C | 89% | 1010.4 hPa | 0 mm | - | - | - |
| 1777837849 | 14.44° C | 89% | 1010.4 hPa | 0 mm | - | - | - |
| 1777837247 | 14.44° C | 89% | 1010.3 hPa | 0 mm | - | - | - |
| 1777836644 | 14.44° C | 89% | 1010.3 hPa | 0 mm | - | - | - |
| 1777836041 | 14.44° C | 88% | 1010.2 hPa | 0 mm | - | - | - |
| 1777835441 | 14.44° C | 88% | 1010.1 hPa | 0 mm | - | - | - |
| 1777834836 | 14.44° C | 87% | 1010 hPa | 0 mm | - | - | - |
| 1777834234 | 14.44° C | 86% | 1010.1 hPa | 0 mm | - | - | - |
| 1777833631 | 14.44° C | 85% | 1010.2 hPa | 0 mm | - | - | - |
| 1777833028 | 14.44° C | 83% | 1010.1 hPa | 0 mm | - | - | - |
| 1777832426 | 14.44° C | 81% | 1010.1 hPa | 0 mm | - | - | - |
| 1777831823 | 15° C | 80% | 1010.1 hPa | 0 mm | - | - | - |
| 1777831221 | 15° C | 80% | 1010 hPa | 0 mm | - | - | - |
| 1777830617 | 15° C | 80% | 1010.1 hPa | 0 mm | - | - | - |
| 1777830015 | 15° C | 78% | 1009.8 hPa | 0 mm | - | - | - |
| 1777829473 | 15° C | 75% | 1009.8 hPa | 0 mm | - | - | - |
| 1777828870 | 15° C | 74% | 1009.8 hPa | 0 mm | - | - | - |
| 1777828267 | 15° C | 74% | 1009.8 hPa | 0 mm | - | - | - |
| 1777827665 | 15° C | 76% | 1009.8 hPa | 0 mm | - | - | - |
| 1777827062 | 15° C | 79% | 1009.8 hPa | 0 mm | - | - | - |
| 1777826460 | 15° C | 82% | 1009.8 hPa | 0 mm | - | - | - |
* Rain latest hour (hover to see other rain measurements)
** Current wind speed in m/s (hover to see current wind gust speed)